TimePST,TemperatureF,Dew PointF,Humidity,Sea Level PressureIn,VisibilityMPH,Wind Direction,Wind SpeedMPH,Gust SpeedMPH,PrecipitationIn,Events,Conditions,WindDirDegrees,DateUTC
12:53 AM,37.0,30.0,76,30.16,10.0,Variable,4.6,-,N/A,,Overcast,0,2013-01-11 08:53:00
1:53 AM,37.0,30.0,76,30.17,10.0,Variable,3.5,-,N/A,,Mostly Cloudy,0,2013-01-11 09:53:00
2:53 AM,37.0,26.1,65,30.18,10.0,Calm,Calm,-,N/A,,Mostly Cloudy,0,2013-01-11 10:53:00
3:53 AM,33.1,30.0,89,30.19,10.0,Calm,Calm,-,N/A,,Overcast,0,2013-01-11 11:53:00
4:16 AM,33.1,30.9,92,30.19,10.0,SSW,3.5,-,N/A,,Overcast,200,2013-01-11 12:16:00
4:25 AM,33.1,30.9,92,30.19,10.0,SW,4.6,-,N/A,,Overcast,230,2013-01-11 12:25:00
4:53 AM,33.1,30.0,89,30.20,10.0,ESE,3.5,-,N/A,,Overcast,120,2013-01-11 12:53:00
5:03 AM,34.0,30.0,85,30.20,10.0,SSE,3.5,-,N/A,,Overcast,160,2013-01-11 13:03:00
5:53 AM,36.0,23.0,59,30.22,10.0,East,8.1,-,N/A,,Mostly Cloudy,90,2013-01-11 13:53:00
6:53 AM,35.1,19.9,54,30.25,10.0,ESE,4.6,-,N/A,,Mostly Cloudy,110,2013-01-11 14:53:00
7:53 AM,30.9,24.1,76,30.28,10.0,SE,5.8,-,N/A,,Mostly Cloudy,140,2013-01-11 15:53:00
8:53 AM,30.9,26.1,82,30.30,10.0,SE,5.8,-,N/A,,Partly Cloudy,140,2013-01-11 16:53:00
9:53 AM,36.0,24.1,62,30.31,10.0,SSE,8.1,-,N/A,,Partly Cloudy,150,2013-01-11 17:53:00
10:53 AM,37.9,19.9,48,30.33,10.0,ESE,5.8,-,N/A,,Clear,120,2013-01-11 18:53:00
11:53 AM,37.4,19.4,48,30.31,10.0,ESE,9.2,-,N/A,,Clear,120,2013-01-11 19:53:00
12:53 PM,39.0,18.0,43,30.31,10.0,ESE,4.6,-,N/A,,Clear,110,2013-01-11 20:53:00
1:53 PM,39.0,19.0,45,30.31,10.0,ESE,6.9,-,N/A,,Clear,120,2013-01-11 21:53:00
2:53 PM,37.9,19.9,48,30.32,10.0,East,5.8,-,N/A,,Clear,100,2013-01-11 22:53:00
3:53 PM,37.0,19.0,48,30.32,10.0,East,3.5,-,N/A,,Clear,80,2013-01-11 23:53:00
4:53 PM,30.9,24.1,76,30.33,10.0,South,3.5,-,N/A,,Clear,170,2013-01-12 00:53:00
5:53 PM,28.9,25.0,85,30.33,10.0,SW,4.6,-,N/A,,Clear,220,2013-01-12 01:53:00
6:53 PM,30.0,24.1,79,30.32,10.0,SW,6.9,-,N/A,,Clear,230,2013-01-12 02:53:00
7:53 PM,30.0,23.0,75,30.32,10.0,SW,6.9,-,N/A,,Partly Cloudy,230,2013-01-12 03:53:00
8:53 PM,30.0,23.0,75,30.31,10.0,North,-9999.0,-,N/A,,Clear,0,2013-01-12 04:53:00
9:53 PM,28.9,23.0,78,30.32,10.0,North,-9999.0,-,N/A,,Clear,0,2013-01-12 05:53:00
10:53 PM,28.9,24.1,82,30.31,10.0,North,-9999.0,-,N/A,,Clear,0,2013-01-12 06:53:00
11:53 PM,28.4,23.0,80,30.30,10.0,North,-9999.0,-,N/A,,Clear,0,2013-01-12 07:53:00